TimeEDT,TemperatureF,Dew PointF,Humidity,Sea Level PressureIn,VisibilityMPH,Wind Direction,Wind SpeedMPH,Gust SpeedMPH,PrecipitationIn,Events,Conditions,WindDirDegrees,DateUTC
12:15 AM,67.5,58.8,74,30.21,10.0,Calm,Calm,-,N/A,,Clear,0,2013-06-24 04:15:00
12:35 AM,67.1,59.0,75,30.21,10.0,Calm,Calm,-,N/A,,Clear,0,2013-06-24 04:35:00
12:55 AM,66.2,59.9,80,30.20,10.0,WNW,3.5,-,N/A,,Clear,300,2013-06-24 04:55:00
1:15 AM,66.4,59.9,80,30.20,10.0,Calm,Calm,-,N/A,,Clear,0,2013-06-24 05:15:00
1:35 AM,67.1,59.4,76,30.20,10.0,Calm,Calm,-,N/A,,Clear,0,2013-06-24 05:35:00
1:55 AM,65.5,59.5,81,30.20,10.0,Calm,Calm,-,N/A,,Clear,0,2013-06-24 05:55:00
2:15 AM,65.7,59.4,80,30.20,10.0,Calm,Calm,-,N/A,,Clear,0,2013-06-24 06:15:00
2:35 AM,64.9,59.2,82,30.20,10.0,Calm,Calm,-,N/A,,Clear,0,2013-06-24 06:35:00
2:55 AM,65.1,59.7,83,30.20,10.0,Calm,Calm,-,N/A,,Clear,0,2013-06-24 06:55:00
3:15 AM,64.8,59.4,83,30.20,10.0,Calm,Calm,-,N/A,,Clear,0,2013-06-24 07:15:00
3:35 AM,63.5,59.4,86,30.20,10.0,Calm,Calm,-,N/A,,Clear,0,2013-06-24 07:35:00
3:55 AM,62.6,59.4,89,30.20,10.0,Calm,Calm,-,N/A,,Clear,0,2013-06-24 07:55:00
4:15 AM,62.1,59.0,90,30.20,10.0,Calm,Calm,-,N/A,,Clear,0,2013-06-24 08:15:00
4:35 AM,62.6,59.2,89,30.20,10.0,Calm,Calm,-,N/A,,Clear,0,2013-06-24 08:35:00
4:55 AM,62.8,59.2,88,30.20,10.0,Calm,Calm,-,N/A,,Clear,0,2013-06-24 08:55:00
5:15 AM,61.9,58.5,89,30.20,10.0,Calm,Calm,-,N/A,,Clear,0,2013-06-24 09:15:00
5:35 AM,61.7,58.6,90,30.20,10.0,Calm,Calm,-,N/A,,Clear,0,2013-06-24 09:35:00
5:55 AM,61.7,58.6,90,30.21,10.0,Calm,Calm,-,N/A,,Clear,0,2013-06-24 09:55:00
6:15 AM,62.4,59.4,90,30.20,10.0,Calm,Calm,-,N/A,,Clear,0,2013-06-24 10:15:00
6:35 AM,62.2,59.2,90,30.21,7.0,Calm,Calm,-,N/A,,Clear,0,2013-06-24 10:35:00
6:55 AM,63.5,60.3,89,30.21,10.0,Calm,Calm,-,N/A,,Clear,0,2013-06-24 10:55:00
7:15 AM,64.6,61.2,89,30.22,7.0,Calm,Calm,-,N/A,,Clear,0,2013-06-24 11:15:00
7:35 AM,66.0,61.3,85,30.22,7.0,Calm,Calm,-,N/A,,Clear,0,2013-06-24 11:35:00
7:55 AM,67.8,61.7,81,30.21,10.0,Calm,Calm,-,N/A,,Clear,0,2013-06-24 11:55:00
8:15 AM,69.6,62.8,79,30.22,10.0,Calm,Calm,-,N/A,,Clear,0,2013-06-24 12:15:00
8:35 AM,71.4,64.4,78,30.22,10.0,Calm,Calm,-,N/A,,Clear,0,2013-06-24 12:35:00
8:55 AM,73.6,65.3,75,30.22,10.0,Calm,Calm,-,N/A,,Clear,0,2013-06-24 12:55:00
9:15 AM,74.7,65.8,74,30.22,10.0,SW,3.5,-,N/A,,Mostly Cloudy,220,2013-06-24 13:15:00
9:35 AM,76.1,66.6,72,30.22,10.0,Calm,Calm,-,N/A,,Overcast,0,2013-06-24 13:35:00
9:55 AM,77.7,66.7,69,30.22,10.0,Calm,Calm,-,N/A,,Mostly Cloudy,0,2013-06-24 13:55:00
10:15 AM,77.9,66.7,68,30.21,10.0,Calm,Calm,-,N/A,,Scattered Clouds,0,2013-06-24 14:15:00
10:35 AM,80.1,66.2,62,30.22,10.0,Calm,Calm,-,N/A,,Clear,0,2013-06-24 14:35:00
10:55 AM,80.6,65.3,59,30.21,10.0,Calm,Calm,-,N/A,,Scattered Clouds,0,2013-06-24 14:55:00
11:15 AM,82.0,64.9,56,30.21,10.0,Calm,Calm,-,N/A,,Clear,0,2013-06-24 15:15:00
11:35 AM,82.8,64.8,54,30.22,10.0,SSW,3.5,-,N/A,,Clear,210,2013-06-24 15:35:00
11:55 AM,83.5,65.8,55,30.21,10.0,Calm,Calm,-,N/A,,Clear,0,2013-06-24 15:55:00
12:15 PM,84.4,66.0,54,30.20,10.0,SW,3.5,-,N/A,,Scattered Clouds,220,2013-06-24 16:15:00
12:35 PM,84.9,62.4,47,30.20,10.0,South,3.5,-,N/A,,Clear,170,2013-06-24 16:35:00
12:55 PM,85.5,66.7,53,30.19,10.0,SE,5.8,-,N/A,,Clear,130,2013-06-24 16:55:00
1:15 PM,86.7,63.9,46,30.17,10.0,SSE,4.6,-,N/A,,Clear,150,2013-06-24 17:15:00
1:35 PM,88.0,61.9,41,30.17,10.0,South,6.9,-,N/A,,Clear,170,2013-06-24 17:35:00
1:55 PM,84.7,60.3,43,30.18,10.0,West,6.9,-,N/A,Thunderstorm,Thunderstorm,270,2013-06-24 17:55:00
2:15 PM,73.8,57.6,57,30.19,10.0,NW,25.3,28.8,N/A,Thunderstorm,Thunderstorm,320,2013-06-24 18:15:00
2:35 PM,71.1,61.2,71,30.19,10.0,North,10.4,19.6,N/A,Rain-Thunderstorm,Light Thunderstorms and Rain,10,2013-06-24 18:35:00
2:55 PM,72.9,61.7,68,30.18,10.0,NE,3.5,-,N/A,,Overcast,50,2013-06-24 18:55:00
3:15 PM,78.1,62.1,58,30.16,10.0,East,8.1,-,N/A,,Scattered Clouds,100,2013-06-24 19:15:00
3:35 PM,76.8,62.6,61,30.16,10.0,East,4.6,-,N/A,Thunderstorm,Scattered Clouds,80,2013-06-24 19:35:00
3:55 PM,79.0,62.8,57,30.15,10.0,East,3.5,-,N/A,,Clear,100,2013-06-24 19:55:00
4:15 PM,78.4,60.1,53,30.14,7.0,Calm,Calm,-,N/A,,Scattered Clouds,0,2013-06-24 20:15:00
4:35 PM,80.1,62.4,55,30.13,10.0,Calm,Calm,-,N/A,,Clear,0,2013-06-24 20:35:00
4:55 PM,80.6,61.7,52,30.13,10.0,West,3.5,-,N/A,,Clear,260,2013-06-24 20:55:00
5:15 PM,81.0,62.4,53,30.12,10.0,WSW,3.5,-,N/A,,Clear,240,2013-06-24 21:15:00
5:35 PM,81.3,62.6,53,30.12,10.0,SW,3.5,-,N/A,Thunderstorm,Clear,230,2013-06-24 21:35:00
5:55 PM,81.7,61.9,51,30.13,10.0,Calm,Calm,-,N/A,,Clear,0,2013-06-24 21:55:00
6:15 PM,80.6,61.5,52,30.12,10.0,Calm,Calm,-,N/A,,Clear,0,2013-06-24 22:15:00
6:35 PM,80.8,63.1,55,30.12,10.0,Calm,Calm,-,N/A,,Clear,0,2013-06-24 22:35:00
6:55 PM,81.9,62.6,52,30.12,10.0,Calm,Calm,-,N/A,,Clear,0,2013-06-24 22:55:00
7:15 PM,81.5,63.3,54,30.12,10.0,Calm,Calm,-,N/A,,Clear,0,2013-06-24 23:15:00
7:35 PM,80.8,64.8,58,30.11,10.0,Calm,Calm,-,N/A,,Clear,0,2013-06-24 23:35:00
7:55 PM,80.4,65.7,61,30.11,10.0,Calm,Calm,-,N/A,Thunderstorm,Clear,0,2013-06-24 23:55:00
8:15 PM,78.3,67.8,70,30.12,10.0,Calm,Calm,-,N/A,Thunderstorm,Clear,0,2013-06-25 00:15:00
8:35 PM,77.7,67.5,71,30.12,10.0,Calm,Calm,-,N/A,,Clear,0,2013-06-25 00:35:00
8:55 PM,75.2,67.6,77,30.13,10.0,SSW,3.5,-,N/A,Thunderstorm,Scattered Clouds,210,2013-06-25 00:55:00
9:15 PM,74.7,61.5,63,30.16,10.0,WSW,21.9,26.5,N/A,,Mostly Cloudy,240,2013-06-25 01:15:00
9:35 PM,69.1,61.9,78,30.16,10.0,SSW,8.1,-,0.01,Rain,Rain,210,2013-06-25 01:35:00
9:55 PM,67.6,63.5,87,30.16,10.0,SSE,5.8,-,0.02,Rain,Light Rain,150,2013-06-25 01:55:00
10:15 PM,67.6,64.2,89,30.15,10.0,SSE,6.9,-,N/A,Rain,Light Rain,160,2013-06-25 02:15:00
10:35 PM,67.5,64.0,89,30.16,10.0,SW,4.6,-,N/A,,Scattered Clouds,230,2013-06-25 02:35:00
10:55 PM,67.1,63.9,89,30.14,10.0,Calm,Calm,-,N/A,,Clear,0,2013-06-25 02:55:00
11:15 PM,66.6,63.7,90,30.14,10.0,Calm,Calm,-,N/A,,Clear,0,2013-06-25 03:15:00
11:35 PM,66.6,63.3,89,30.14,10.0,Calm,Calm,-,N/A,,Clear,0,2013-06-25 03:35:00
11:55 PM,66.2,63.7,92,30.14,10.0,Calm,Calm,-,N/A,,Clear,0,2013-06-25 03:55:00